Time,TemperatureF,DewpointF,PressureIn,WindDirection,WindDirectionDegrees,WindSpeedMPH,WindSpeedGustMPH,Humidity,HourlyPrecipIn,Conditions,Clouds,dailyrainin,SoftwareType,DateUTC
2013-02-06 00:10:00,44.5,41.0,29.89,North,5,0.0,6.0,88,0.00,,,0.00,weatherlink.com 1.10,2013-02-06 08:10:00,
2013-02-06 00:26:00,44.5,42.0,29.90,WNW,287,4.0,8.0,89,0.00,,,0.00,weatherlink.com 1.10,2013-02-06 08:26:00,
2013-02-06 00:40:00,44.3,41.0,29.90,WNW,287,6.0,6.0,89,0.00,,,0.00,weatherlink.com 1.10,2013-02-06 08:40:00,
2013-02-06 00:56:00,44.3,41.0,29.91,East,95,1.0,10.0,89,0.00,,,0.00,weatherlink.com 1.10,2013-02-06 08:56:00,
2013-02-06 01:11:00,44.3,41.0,29.91,NW,314,3.0,7.0,89,0.00,,,0.00,weatherlink.com 1.10,2013-02-06 09:11:00,
2013-02-06 01:26:00,44.2,41.0,29.91,ENE,77,0.0,9.0,89,0.00,,,0.00,weatherlink.com 1.10,2013-02-06 09:26:00,
2013-02-06 01:41:00,43.9,41.0,29.92,East,84,2.0,6.0,90,0.00,,,0.00,weatherlink.com 1.10,2013-02-06 09:41:00,
2013-02-06 01:56:00,43.8,41.0,29.92,ENE,64,2.0,6.0,90,0.00,,,0.00,weatherlink.com 1.10,2013-02-06 09:56:00,
2013-02-06 02:11:00,43.7,41.0,29.93,NE,51,0.0,12.0,91,0.00,,,0.00,weatherlink.com 1.10,2013-02-06 10:11:00,
2013-02-06 02:26:00,43.4,41.0,29.93,SSE,147,2.0,10.0,92,0.00,,,0.00,weatherlink.com 1.10,2013-02-06 10:26:00,
2013-02-06 02:41:00,43.6,41.0,29.94,ESE,115,2.0,7.0,91,0.00,,,0.00,weatherlink.com 1.10,2013-02-06 10:41:00,
2013-02-06 02:56:00,43.7,41.0,29.94,NW,319,1.0,6.0,90,0.00,,,0.00,weatherlink.com 1.10,2013-02-06 10:56:00,
2013-02-06 03:11:00,43.9,41.0,29.94,NE,41,0.0,8.0,90,0.00,,,0.00,weatherlink.com 1.10,2013-02-06 11:11:00,
2013-02-06 03:26:00,43.7,41.0,29.94,East,95,2.0,4.0,91,0.00,,,0.00,weatherlink.com 1.10,2013-02-06 11:26:00,
2013-02-06 03:41:00,43.7,41.0,29.95,WSW,243,0.0,3.0,91,0.00,,,0.00,weatherlink.com 1.10,2013-02-06 11:41:00,
2013-02-06 03:57:00,43.7,41.0,29.95,West,270,0.0,5.0,91,0.00,,,0.00,weatherlink.com 1.10,2013-02-06 11:57:00,
2013-02-06 04:11:00,43.7,41.0,29.96,East,82,0.0,6.0,90,0.00,,,0.00,weatherlink.com 1.10,2013-02-06 12:11:00,
2013-02-06 04:27:00,43.7,41.0,29.96,West,280,0.0,4.0,90,0.00,,,0.00,weatherlink.com 1.10,2013-02-06 12:27:00,
2013-02-06 04:42:00,43.6,41.0,29.97,SE,134,0.0,5.0,91,0.00,,,0.00,weatherlink.com 1.10,2013-02-06 12:42:00,
2013-02-06 04:57:00,43.6,41.0,29.97,South,187,1.0,6.0,91,0.00,,,0.00,weatherlink.com 1.10,2013-02-06 12:57:00,
2013-02-06 05:11:00,43.5,41.0,29.97,East,93,0.0,5.0,92,0.00,,,0.00,weatherlink.com 1.10,2013-02-06 13:11:00,
2013-02-06 05:26:00,43.3,41.0,29.98,NW,312,0.0,5.0,92,0.00,,,0.00,weatherlink.com 1.10,2013-02-06 13:26:00,
2013-02-06 05:41:00,43.3,42.0,29.98,West,280,0.0,5.0,93,0.00,,,0.00,weatherlink.com 1.10,2013-02-06 13:41:00,
2013-02-06 05:56:00,43.2,41.0,29.98,East,101,0.0,9.0,93,0.00,,,0.00,weatherlink.com 1.10,2013-02-06 13:56:00,
2013-02-06 06:11:00,43.2,41.0,29.98,ESE,106,3.0,5.0,93,0.00,,,0.00,weatherlink.com 1.10,2013-02-06 14:11:00,
2013-02-06 06:26:00,43.2,41.0,29.98,ESE,115,0.0,6.0,92,0.00,,,0.00,weatherlink.com 1.10,2013-02-06 14:26:00,
2013-02-06 06:41:00,43.3,41.0,29.99,NNE,16,0.0,7.0,92,0.00,,,0.00,weatherlink.com 1.10,2013-02-06 14:41:00,
2013-02-06 06:56:00,43.3,41.0,30.00,WSW,247,1.0,6.0,92,0.00,,,0.00,weatherlink.com 1.10,2013-02-06 14:56:00,
2013-02-06 07:11:00,43.3,41.0,29.99,NNE,27,1.0,6.0,92,0.00,,,0.00,weatherlink.com 1.10,2013-02-06 15:11:00,
2013-02-06 07:26:00,43.0,41.0,30.00,ESE,103,0.0,7.0,92,0.00,,,0.00,weatherlink.com 1.10,2013-02-06 15:26:00,
2013-02-06 07:44:00,42.9,41.0,30.00,West,278,2.0,8.0,92,0.00,,,0.00,weatherlink.com 1.10,2013-02-06 15:44:00,
2013-02-06 07:57:00,43.0,41.0,30.00,ENE,65,1.0,6.0,93,0.00,,,0.00,weatherlink.com 1.10,2013-02-06 15:57:00,
2013-02-06 08:12:00,43.1,41.0,30.01,East,96,0.0,5.0,92,0.00,,,0.00,weatherlink.com 1.10,2013-02-06 16:12:00,
2013-02-06 08:27:00,43.3,41.0,30.00,SW,233,0.0,8.0,91,0.00,,,0.00,weatherlink.com 1.10,2013-02-06 16:27:00,
2013-02-06 08:42:00,43.6,41.0,30.01,ESE,113,2.0,6.0,90,0.00,,,0.00,weatherlink.com 1.10,2013-02-06 16:42:00,
2013-02-06 08:57:00,43.9,41.0,30.00,NNE,30,0.0,5.0,90,0.00,,,0.00,weatherlink.com 1.10,2013-02-06 16:57:00,
2013-02-06 09:12:00,44.3,41.0,30.00,ENE,68,0.0,7.0,89,0.00,,,0.00,weatherlink.com 1.10,2013-02-06 17:12:00,
2013-02-06 09:27:00,44.7,41.0,29.99,East,81,1.0,7.0,88,0.00,,,0.00,weatherlink.com 1.10,2013-02-06 17:27:00,
2013-02-06 09:42:00,45.2,42.0,29.99,ESE,117,1.0,3.0,87,0.00,,,0.00,weatherlink.com 1.10,2013-02-06 17:42:00,
2013-02-06 09:57:00,45.6,41.0,29.99,North,9,0.0,8.0,85,0.00,,,0.00,weatherlink.com 1.10,2013-02-06 17:57:00,
2013-02-06 10:12:00,46.0,41.0,29.99,West,259,2.0,8.0,84,0.00,,,0.00,weatherlink.com 1.10,2013-02-06 18:12:00,
2013-02-06 10:27:00,46.4,42.0,29.99,WSW,246,2.0,4.0,84,0.00,,,0.00,weatherlink.com 1.10,2013-02-06 18:27:00,
2013-02-06 10:42:00,46.7,42.0,29.99,ESE,110,2.0,4.0,82,0.00,,,0.00,weatherlink.com 1.10,2013-02-06 18:42:00,
2013-02-06 10:57:00,46.9,42.0,29.99,ESE,118,0.0,4.0,83,0.00,,,0.00,weatherlink.com 1.10,2013-02-06 18:57:00,
2013-02-06 11:12:00,47.3,41.0,29.99,WNW,289,0.0,5.0,80,0.00,,,0.00,weatherlink.com 1.10,2013-02-06 19:12:00,
2013-02-06 11:27:00,47.5,41.0,29.98,NE,46,2.0,4.0,79,0.00,,,0.00,weatherlink.com 1.10,2013-02-06 19:27:00,
2013-02-06 11:42:00,47.6,41.0,29.98,East,79,0.0,3.0,79,0.00,,,0.00,weatherlink.com 1.10,2013-02-06 19:42:00,
2013-02-06 11:57:00,48.0,41.0,29.97,WSW,253,2.0,3.0,78,0.00,,,0.00,weatherlink.com 1.10,2013-02-06 19:57:00,
2013-02-06 12:12:00,48.9,42.0,29.96,East,82,2.0,4.0,78,0.00,,,0.00,weatherlink.com 1.10,2013-02-06 20:12:00,
2013-02-06 12:27:00,49.0,41.0,29.96,ESE,108,1.0,3.0,74,0.00,,,0.00,weatherlink.com 1.10,2013-02-06 20:27:00,
2013-02-06 12:42:00,49.2,41.0,29.95,NE,37,0.0,4.0,73,0.00,,,0.00,weatherlink.com 1.10,2013-02-06 20:42:00,
2013-02-06 12:57:00,50.4,41.0,29.95,ENE,58,4.0,5.0,71,0.00,,,0.00,weatherlink.com 1.10,2013-02-06 20:57:00,
2013-02-06 13:12:00,50.0,41.0,29.94,NW,318,1.0,9.0,70,0.00,,,0.00,weatherlink.com 1.10,2013-02-06 21:12:00,
2013-02-06 13:27:00,50.0,41.0,29.94,West,281,2.0,5.0,71,0.00,,,0.00,weatherlink.com 1.10,2013-02-06 21:27:00,
2013-02-06 13:42:00,50.1,41.0,29.93,NNW,329,6.0,6.0,70,0.00,,,0.00,weatherlink.com 1.10,2013-02-06 21:42:00,
2013-02-06 13:58:00,50.7,42.0,29.92,NW,315,3.0,4.0,71,0.00,,,0.00,weatherlink.com 1.10,2013-02-06 21:58:00,
2013-02-06 14:12:00,51.0,42.0,29.92,West,259,2.0,7.0,70,0.00,,,0.00,weatherlink.com 1.10,2013-02-06 22:12:00,
2013-02-06 14:27:00,50.7,42.0,29.92,NE,34,5.0,6.0,71,0.00,,,0.00,weatherlink.com 1.10,2013-02-06 22:27:00,
2013-02-06 14:42:00,49.7,42.0,29.92,WNW,301,3.0,8.0,75,0.00,,,0.00,weatherlink.com 1.10,2013-02-06 22:42:00,
2013-02-06 14:57:00,49.7,42.0,29.91,WNW,301,2.0,4.0,75,0.00,,,0.00,weatherlink.com 1.10,2013-02-06 22:57:00,
2013-02-06 15:12:00,49.4,41.0,29.91,East,97,4.0,6.0,73,0.00,,,0.00,weatherlink.com 1.10,2013-02-06 23:12:00,
2013-02-06 15:27:00,49.1,42.0,29.91,NE,49,1.0,7.0,76,0.00,,,0.00,weatherlink.com 1.10,2013-02-06 23:27:00,
2013-02-06 15:43:00,48.1,42.0,29.91,WSW,246,2.0,7.0,79,0.00,,,0.00,weatherlink.com 1.10,2013-02-06 23:43:00,
2013-02-06 15:57:00,47.3,42.0,29.91,NE,45,1.0,4.0,81,0.00,,,0.00,weatherlink.com 1.10,2013-02-06 23:57:00,
2013-02-06 16:12:00,46.8,42.0,29.90,ESE,114,1.0,4.0,84,0.00,,,0.00,weatherlink.com 1.10,2013-02-07 00:12:00,
2013-02-06 16:27:00,46.7,42.0,29.90,NE,51,0.0,1.0,84,0.01,,,0.01,weatherlink.com 1.10,2013-02-07 00:27:00,
2013-02-06 16:43:00,46.1,42.0,29.90,East,79,2.0,6.0,86,0.01,,,0.01,weatherlink.com 1.10,2013-02-07 00:43:00,
2013-02-06 16:57:00,45.3,43.0,29.90,East,98,1.0,4.0,90,0.02,,,0.02,weatherlink.com 1.10,2013-02-07 00:57:00,
2013-02-06 17:12:00,44.9,43.0,29.89,NE,39,5.0,5.0,91,0.02,,,0.03,weatherlink.com 1.10,2013-02-07 01:12:00,
2013-02-06 17:28:00,44.5,43.0,29.89,ENE,75,2.0,4.0,93,0.03,,,0.04,weatherlink.com 1.10,2013-02-07 01:28:00,
2013-02-06 17:42:00,44.4,43.0,29.87,East,79,2.0,4.0,93,0.03,,,0.04,weatherlink.com 1.10,2013-02-07 01:42:00,
2013-02-06 17:58:00,44.3,42.0,29.86,East,80,1.0,4.0,93,0.02,,,0.04,weatherlink.com 1.10,2013-02-07 01:58:00,
2013-02-06 18:13:00,44.3,42.0,29.86,East,82,2.0,6.0,92,0.01,,,0.04,weatherlink.com 1.10,2013-02-07 02:13:00,
2013-02-06 18:28:00,44.4,42.0,29.86,ESE,113,0.0,6.0,91,0.00,,,0.04,weatherlink.com 1.10,2013-02-07 02:28:00,
2013-02-06 18:43:00,44.4,42.0,29.85,NE,51,0.0,3.0,91,0.01,,,0.05,weatherlink.com 1.10,2013-02-07 02:43:00,
2013-02-06 18:58:00,44.2,42.0,29.85,East,82,0.0,0.0,93,0.02,,,0.06,weatherlink.com 1.10,2013-02-07 02:58:00,
2013-02-06 19:13:00,43.9,42.0,29.84,East,82,0.0,0.0,94,0.02,,,0.06,weatherlink.com 1.10,2013-02-07 03:13:00,
2013-02-06 19:28:00,43.7,42.0,29.82,NE,43,0.0,4.0,94,0.02,,,0.06,weatherlink.com 1.10,2013-02-07 03:28:00,
2013-02-06 19:43:00,43.7,42.0,29.81,ENE,74,2.0,5.0,93,0.01,,,0.06,weatherlink.com 1.10,2013-02-07 03:43:00,
2013-02-06 19:58:00,43.9,42.0,29.80,East,81,3.0,6.0,91,0.00,,,0.06,weatherlink.com 1.10,2013-02-07 03:58:00,
2013-02-06 20:13:00,44.2,41.0,29.80,East,81,2.0,7.0,89,0.00,,,0.06,weatherlink.com 1.10,2013-02-07 04:13:00,
2013-02-06 20:28:00,44.4,41.0,29.79,ENE,70,0.0,5.0,88,0.00,,,0.06,weatherlink.com 1.10,2013-02-07 04:28:00,
2013-02-06 20:43:00,44.3,41.0,29.79,NE,53,0.0,5.0,88,0.00,,,0.06,weatherlink.com 1.10,2013-02-07 04:43:00,
2013-02-06 20:58:00,44.5,41.0,29.78,ENE,62,1.0,2.0,87,0.00,,,0.06,weatherlink.com 1.10,2013-02-07 04:58:00,
2013-02-06 21:13:00,44.3,41.0,29.78,East,90,1.0,3.0,87,0.00,,,0.06,weatherlink.com 1.10,2013-02-07 05:13:00,
2013-02-06 21:28:00,44.7,41.0,29.77,ENE,68,0.0,3.0,86,0.00,,,0.06,weatherlink.com 1.10,2013-02-07 05:28:00,
2013-02-06 21:42:00,44.7,41.0,29.76,ENE,58,1.0,3.0,86,0.00,,,0.06,weatherlink.com 1.10,2013-02-07 05:42:00,
2013-02-06 21:57:00,45.1,40.0,29.76,NE,52,4.0,4.0,83,0.00,,,0.06,weatherlink.com 1.10,2013-02-07 05:57:00,
2013-02-06 22:12:00,45.8,40.0,29.75,East,96,0.0,3.0,81,0.00,,,0.06,weatherlink.com 1.10,2013-02-07 06:12:00,
2013-02-06 22:28:00,46.1,40.0,29.75,ENE,69,2.0,5.0,79,0.00,,,0.06,weatherlink.com 1.10,2013-02-07 06:28:00,
2013-02-06 22:43:00,46.3,40.0,29.75,East,100,0.0,1.0,78,0.00,,,0.06,weatherlink.com 1.10,2013-02-07 06:43:00,
2013-02-06 22:58:00,45.5,41.0,29.75,East,86,0.0,2.0,83,0.00,,,0.06,weatherlink.com 1.10,2013-02-07 06:58:00,
2013-02-06 23:13:00,45.1,41.0,29.74,ENE,76,3.0,10.0,85,0.00,,,0.06,weatherlink.com 1.10,2013-02-07 07:13:00,
2013-02-06 23:28:00,46.0,40.0,29.75,South,173,0.0,4.0,80,0.00,,,0.06,weatherlink.com 1.10,2013-02-07 07:28:00,
2013-02-06 23:43:00,46.4,40.0,29.75,ENE,73,3.0,5.0,78,0.00,,,0.06,weatherlink.com 1.10,2013-02-07 07:43:00,
2013-02-06 23:58:00,46.1,41.0,29.75,NE,46,0.0,2.0,81,0.00,,,0.06,weatherlink.com 1.10,2013-02-07 07:58:00,